Theta_e
314 314 315 315 314 316 319 319 319 318 318 318 317 317 317 317 317 317 317 318 318 317 318 317 318 317 316 324 327 332 329 323 323 324 328 344 349 341 335 339 346 346 345 346 344 349 343
314 314 316 318 317 317 319 320 321 321 320 320 319 319 319 318 318 317 317 318 318 318 319 320 321 317 317 324 329 329 333 323 321 325 332 347 347 337 336 339 345 344 343 343 342 345 350
319 318 318 320 321 320 320 321 321 322 322 321 321 321 320 320 319 318 317 318 318 318 319 320 320 317 316 322 328 336 334 321 322 329 342 345 339 338 336 336 342 342 346 343 344 345 347
321 321 321 321 321 321 321 321 321 322 322 322 322 322 321 321 320 319 317 318 318 318 318 320 320 318 319 326 325 329 337 333 338 341 343 342 340 338 336 336 339 343 347 353 348 346 347
322 322 321 321 321 321 321 321 321 322 322 322 322 322 322 322 321 319 317 318 318 319 319 319 324 329 329 327 325 324 336 336 338 341 341 340 339 335 333 334 341 344 346 350 348 348 344
321 321 321 321 321 322 322 322 322 322 322 322 322 322 322 322 322 320 317 323 329 330 328 322 321 327 329 327 326 324 335 337 338 339 340 338 337 331 330 331 340 340 343 344 346 350 349
321 321 321 321 321 321 321 320 320 320 320 321 321 322 322 322 322 319 324 329 330 332 328 332 331 327 330 326 324 324 334 336 332 329 329 333 331 329 330 332 336 338 340 344 342 349 350
321 321 320 319 319 318 318 318 317 317 318 318 320 321 322 322 322 318 319 326 328 326 326 326 328 330 330 329 327 324 328 335 329 326 327 325 327 330 331 334 338 338 338 338 339 341 347
318 318 318 318 317 317 316 316 316 315 316 317 317 319 321 321 321 325 327 325 327 325 326 327 327 327 328 329 328 328 325 331 329 327 325 324 327 331 332 331 332 333 334 338 337 337 339
318 317 317 316 315 314 313 313 314 314 315 315 316 317 319 321 322 327 328 326 324 325 326 329 329 328 327 327 327 328 326 325 326 324 324 324 326 328 328 330 330 330 333 336 336 334 335
317 316 315 314 313 313 314 314 315 315 315 315 316 317 318 320 321 324 326 325 324 326 335 330 328 327 327 327 328 327 327 325 324 324 325 323 325 325 326 327 326 326 332 334 335 332 336
316 315 314 313 314 315 315 315 315 315 316 316 316 317 318 319 322 323 324 325 325 328 333 330 330 329 327 327 327 328 326 327 327 324 323 323 327 325 326 328 328 328 329 330 330 331 341
316 315 313 314 315 315 316 316 316 317 317 317 317 318 319 320 324 327 326 325 328 330 331 330 328 327 326 326 326 325 325 325 324 324 322 324 324 325 327 327 327 326 327 328 334 348 349
316 316 316 316 316 315 315 317 317 317 318 318 319 320 320 321 325 325 326 327 333 333 328 328 327 327 327 328 326 325 326 325 324 323 321 323 324 325 326 324 324 325 325 325 335 349 348
317 316 316 316 316 315 315 316 317 318 319 319 321 329 327 323 321 325 327 332 330 327 326 325 326 327 326 327 327 325 325 325 326 322 321 322 324 327 327 327 325 325 325 327 328 328 331
317 317 317 316 316 316 315 317 318 319 319 320 322 329 332 328 325 326 328 330 331 326 326 325 326 328 330 330 328 328 327 327 327 326 324 325 325 326 329 329 328 325 325 321 323 334 338
318 317 317 316 316 316 316 316 318 319 319 320 329 334 328 325 326 326 329 331 331 329 328 326 326 329 329 330 331 328 328 329 328 330 328 327 325 326 327 328 326 325 323 323 321 325 329
320 317 317 316 316 316 316 316 317 319 319 324 329 336 328 326 327 330 329 332 329 328 329 329 326 327 328 330 331 331 331 333 333 331 335 331 325 324 326 326 327 326 325 322 322 323 326
323 319 317 317 316 316 316 317 317 320 323 324 327 335 327 327 332 335 334 334 330 330 330 330 331 330 330 330 332 332 331 332 333 333 335 332 332 331 328 324 325 326 326 325 322 322 323
324 323 318 318 317 317 317 317 317 323 327 329 332 339 328 328 331 330 333 335 334 332 332 329 332 330 330 331 329 332 331 331 331 333 332 332 329 329 329 329 329 334 332 326 326 323 325
325 325 322 319 319 318 318 317 317 324 328 328 334 334 330 337 332 334 332 333 332 333 334 333 333 333 333 332 333 335 337 337 336 332 332 329 329 329 328 330 333 335 334 335 326 325 326
326 326 325 321 320 320 319 318 318 317 328 328 327 329 329 330 332 333 330 333 336 335 334 334 334 334 334 334 336 337 335 335 336 334 334 331 333 334 336 335 335 335 335 335 338 339 338
325 325 326 325 321 321 320 319 318 317 322 328 327 327 330 332 332 330 330 332 332 331 332 331 331 334 334 333 330 331 331 333 333 332 332 331 332 333 334 333 334 336 334 335 337 341 343
323 324 325 325 324 321 321 320 317 316 320 326 326 327 331 333 331 330 331 329 328 328 329 327 327 328 330 331 329 330 330 330 330 328 330 328 332 332 334 335 340 335 333 336 338 343 342
324 323 324 324 325 324 322 321 318 316 316 325 325 325 327 330 330 330 328 328 326 328 330 330 329 329 328 327 328 331 330 331 332 330 327 331 334 334 336 337 337 336 336 336 335 340 340
325 324 323 323 324 324 324 322 319 317 316 324 325 321 325 328 331 328 328 327 330 328 328 328 330 330 329 328 329 333 333 333 336 334 333 332 332 333 336 339 340 337 334 335 334 343 337
325 325 323 323 324 324 324 324 321 318 316 319 324 323 323 325 326 324 326 326 325 327 328 329 330 330 329 328 330 329 330 331 337 340 339 336 335 336 335 335 341 336 337 337 335 341 338
325 325 324 323 323 324 324 324 324 320 317 316 324 322 322 323 321 325 326 326 326 326 329 328 330 330 333 333 330 331 335 339 339 337 338 337 339 335 335 337 341 333 338 339 339 333 337
325 325 325 324 323 323 324 324 325 324 319 316 316 318 320 321 323 323 323 322 324 324 324 325 326 328 329 332 332 333 335 339 341 339 334 338 338 342 339 340 333 335 334 334 333 332 331
Wind_Speed
11 12 12 13 14 15 16 16 17 17 17 18 19 19 19 20 20 20 19 18 18 16 14 12 11 9 10 5 10 5 8 9 11 11 7 10 22 18 8 7 7 9 9 25 24 29 24
12 13 13 13 13 14 15 16 17 17 18 19 19 20 20 21 21 20 19 18 17 14 13 11 10 8 7 5 5 9 13 13 12 11 6 9 14 17 15 14 10 9 18 9 16 10 17
13 13 14 14 14 14 15 16 17 18 19 20 20 20 20 21 22 20 19 17 16 12 10 9 8 6 9 14 3 8 11 6 11 7 7 11 15 16 21 6 17 14 3 10 14 10 7
14 14 15 15 15 15 16 17 18 19 20 20 21 21 21 21 22 21 18 16 14 12 9 6 6 7 8 3 8 7 10 2 4 10 13 16 13 15 14 22 10 2 7 5 6 10 7
14 14 15 15 16 17 17 18 19 20 20 21 21 21 21 21 21 21 17 15 13 10 8 6 3 6 10 5 13 15 12 9 7 10 11 12 12 13 20 7 5 3 3 11 7 19 10
14 15 16 17 18 18 19 19 20 21 21 21 21 21 20 21 20 20 14 14 9 8 5 7 9 8 7 12 14 9 12 11 14 9 12 15 14 6 6 0 7 8 2 6 3 11 9
15 16 17 18 19 19 20 20 21 21 21 21 21 20 19 19 18 16 8 13 8 3 9 10 7 9 12 4 3 7 12 11 11 8 4 17 3 8 14 11 13 11 9 13 5 17 11
16 17 18 19 19 20 21 21 21 21 21 21 21 20 18 17 15 8 9 10 7 9 12 18 24 25 24 11 4 10 13 13 10 5 9 7 8 15 16 5 12 9 11 4 5 9 13
17 18 18 19 20 20 21 22 22 22 21 21 20 19 18 14 10 2 9 8 12 12 6 17 21 23 22 15 11 13 18 17 9 7 10 8 13 14 13 10 10 6 8 1 1 3 1
18 18 19 20 20 21 22 22 22 21 21 20 19 17 16 12 5 7 2 6 9 8 3 6 7 11 19 15 10 23 21 18 9 11 10 9 17 12 12 7 6 8 10 5 7 7 4
18 19 19 19 20 21 21 21 21 21 20 19 18 16 11 12 8 7 6 6 11 8 4 10 7 10 11 13 1 12 19 25 10 10 6 12 9 9 9 6 9 10 10 7 3 4 8
18 19 19 20 21 21 21 21 20 20 20 18 16 15 10 11 10 2 8 13 11 1 5 6 9 7 6 13 19 10 14 21 18 9 11 11 25 7 5 5 6 8 8 9 8 5 4
19 19 20 20 20 21 21 22 22 21 20 17 14 14 12 11 4 3 3 9 1 3 5 5 6 11 11 11 9 7 8 5 5 4 8 10 15 13 9 4 5 8 4 3 5 5 7
19 19 20 21 21 22 23 24 23 21 21 16 11 11 8 5 10 2 8 3 4 7 12 8 9 6 4 6 10 10 8 7 9 10 6 5 10 13 12 10 9 7 4 5 3 5 7
20 20 21 22 23 23 24 25 24 21 20 14 6 3 0 6 5 4 5 3 4 8 10 10 11 7 9 10 7 9 11 9 10 12 9 4 10 10 7 6 9 8 5 9 3 6 3
22 21 22 23 25 25 26 27 26 22 19 12 3 5 6 1 4 2 2 5 3 7 8 7 5 8 9 3 7 5 5 9 9 11 14 9 5 8 5 4 3 6 4 6 4 1 1
24 23 23 24 25 26 27 28 27 22 17 9 7 5 5 7 5 6 3 5 4 16 7 6 10 10 13 10 13 4 6 7 10 3 4 4 1 10 7 1 5 4 4 4 2 3 2
23 24 22 23 24 26 27 28 28 23 16 11 7 3 5 6 5 6 4 4 2 8 5 4 4 6 8 10 8 10 9 7 19 13 4 8 1 4 8 12 7 9 8 8 5 9 4
22 25 24 24 24 26 27 27 26 23 21 20 10 7 5 7 3 5 8 4 3 2 9 10 7 10 13 8 6 11 15 15 10 6 4 7 4 5 10 9 9 6 7 7 3 1 6
21 22 24 24 24 25 26 26 24 19 20 21 7 2 6 9 16 10 8 8 7 8 4 3 6 11 7 8 9 7 11 14 14 6 6 2 3 5 5 9 8 6 8 6 4 2 5
19 21 23 24 25 25 26 26 23 14 16 17 7 6 12 4 9 9 11 10 10 7 4 4 4 6 5 5 8 10 15 15 23 4 2 5 4 7 11 11 7 9 13 18 6 8 4
18 19 21 23 23 24 26 26 24 18 13 15 9 8 12 15 19 6 4 6 6 12 11 11 9 13 9 8 7 12 13 15 5 12 11 6 4 5 7 12 14 6 17 19 12 14 18
17 18 20 21 22 23 24 25 25 23 16 8 21 11 9 12 11 7 9 12 15 15 9 19 18 12 6 11 19 19 20 24 17 9 10 7 3 4 4 11 10 3 14 8 5 14 11
17 16 18 20 20 21 22 23 23 21 19 16 19 13 6 5 9 10 14 16 14 13 8 17 18 8 16 23 25 19 25 20 17 12 15 8 2 2 2 6 3 5 11 8 7 18 24
15 16 17 18 19 20 20 21 20 19 16 10 17 11 7 5 15 12 16 12 15 16 10 13 15 14 13 15 5 6 9 7 9 10 2 7 4 3 2 1 2 6 4 5 8 6 19
15 16 16 17 18 18 19 20 19 18 16 6 13 15 4 9 4 16 13 15 7 10 7 16 22 15 14 3 2 3 3 7 5 8 9 10 7 4 3 2 4 3 9 20 7 3 17
16 16 15 15 15 17 18 18 19 17 15 11 11 17 6 7 8 15 5 8 10 9 4 6 18 9 8 2 4 4 6 7 3 3 5 4 3 0 3 3 3 7 15 8 3 3 18
16 17 16 15 14 14 15 17 17 18 16 13 7 14 12 6 22 4 5 9 13 11 4 17 10 12 6 4 2 3 3 3 4 4 2 1 1 2 2 3 3 15 8 6 5 19 11
16 16 16 15 15 13 13 14 16 17 17 15 12 11 16 11 11 20 11 11 13 13 11 7 9 14 4 4 4 4 4 4 2 1 4 1 3 2 1 2 7 10 5 10 1 19 16
Wind_Direction
351 350 349 346 345 345 345 345 343 340 339 338 337 335 333 331 331 331 331 332 334 332 332 330 324 318 312 297 272 269 269 277 241 234 253 285 294 322 342 321 181 31 357 24 349 93 97
342 341 341 341 339 338 339 339 339 338 336 333 333 332 331 329 328 328 328 328 329 330 330 331 322 314 300 267 288 290 290 248 215 221 242 274 288 347 330 46 67 35 61 279 331 92 115
335 335 335 336 336 333 332 332 333 333 333 331 328 328 329 328 326 325 324 324 323 323 322 328 321 307 270 236 256 310 326 205 198 211 254 290 342 350 320 339 89 142 104 335 307 294 91
331 332 334 335 333 331 330 328 328 328 327 327 326 325 326 326 325 323 322 320 315 312 305 312 311 314 263 325 215 237 282 250 187 233 273 301 322 316 294 300 286 332 90 228 245 203 172
334 334 335 335 332 330 328 326 324 324 324 323 323 323 322 324 326 323 323 316 310 304 293 280 287 306 276 248 226 243 226 224 227 245 261 279 297 290 294 303 346 53 186 221 132 205 129
337 335 333 332 330 328 326 324 323 323 322 322 321 322 320 322 326 325 328 324 318 294 299 267 235 298 245 244 241 183 201 225 229 233 253 258 265 258 277 276 285 270 315 352 206 164 125
336 334 332 330 329 327 326 324 323 321 321 319 319 320 319 321 326 328 354 10 352 22 314 237 262 245 289 150 132 192 197 216 253 281 250 256 243 250 253 218 222 269 256 230 115 166 115
337 335 334 332 329 326 324 322 321 320 318 317 316 317 318 321 324 319 327 344 23 330 298 276 258 255 264 285 224 207 207 198 228 241 271 300 252 250 267 206 218 241 255 288 283 96 116
341 339 337 334 331 328 325 323 321 319 317 315 313 315 318 322 321 314 319 314 330 338 284 291 234 231 238 243 225 242 201 213 226 224 247 236 259 270 266 257 289 278 238 300 77 303 116
344 342 340 336 334 331 329 326 324 322 319 317 314 314 317 322 293 290 337 353 329 327 300 260 178 220 221 215 264 236 216 203 218 241 244 235 255 271 293 295 316 312 305 32 21 6 277
349 347 345 341 339 337 335 332 329 325 322 319 315 311 314 311 287 274 347 355 328 311 332 152 145 150 171 190 179 199 216 198 221 230 238 259 272 274 277 276 288 264 296 335 342 292 46
354 352 353 351 348 346 343 340 334 329 324 318 314 308 305 293 277 277 338 335 316 287 240 156 143 184 201 201 259 250 195 206 216 255 283 270 288 274 272 330 337 313 302 346 329 26 341
358 359 357 354 351 349 348 345 341 335 328 322 313 301 290 268 213 62 310 305 276 241 296 141 185 160 186 201 227 173 183 201 197 222 257 271 262 273 256 234 292 291 312 322 39 67 253
1 1 1 0 357 354 351 349 346 340 332 327 313 300 286 261 212 235 332 308 258 325 13 23 10 319 232 202 205 207 176 202 215 230 277 249 290 240 241 193 195 262 188 169 204 192 241
6 3 4 3 3 1 357 352 350 346 336 337 318 337 315 69 190 129 298 265 335 15 20 357 335 298 278 234 213 183 197 208 209 194 197 284 283 311 226 176 160 274 304 237 244 283 70
8 6 6 5 5 4 1 357 355 354 340 345 328 284 283 123 91 107 265 274 297 63 9 356 325 318 327 312 156 187 226 218 228 204 195 240 265 286 306 118 220 168 257 8 347 235 316
10 8 6 5 6 5 4 1 358 0 351 351 359 325 145 157 160 246 245 256 19 0 68 342 333 328 333 352 338 183 239 264 214 124 34 292 102 298 3 279 186 311 277 278 187 158 185
11 11 9 8 8 7 7 4 0 0 9 355 342 265 160 154 211 230 239 265 352 308 343 254 292 309 301 343 336 349 359 44 26 31 30 357 59 317 274 289 229 215 226 196 134 278 222
9 11 10 9 9 9 9 8 3 0 5 355 339 267 150 184 269 308 304 355 140 320 350 350 346 359 350 356 356 339 338 332 63 51 50 0 338 348 319 326 313 250 233 222 238 182 250
6 8 9 9 9 9 10 10 7 0 1 350 348 291 156 206 250 266 328 340 3 129 300 37 343 321 329 320 309 299 310 308 316 132 135 60 271 233 233 258 311 333 347 220 209 301 276
2 6 7 8 8 9 10 12 12 10 8 15 360 25 9 328 334 354 1 337 325 325 76 48 289 294 353 1 340 354 358 342 355 92 242 134 256 293 286 313 345 337 338 9 250 237 204
1 4 6 7 8 8 10 11 16 20 26 33 17 356 336 299 311 287 268 293 339 11 16 355 331 350 8 27 28 342 346 335 329 336 342 347 326 328 321 347 348 345 21 4 5 7 6
354 1 5 6 7 8 10 12 13 20 30 57 10 350 306 296 306 333 14 0 354 8 346 338 357 349 338 343 344 337 311 290 286 300 306 316 326 24 311 326 6 8 353 352 332 38 347
353 351 356 2 6 7 9 12 14 20 27 30 17 355 318 306 339 6 7 10 1 350 333 316 317 323 310 320 314 323 304 292 285 273 264 282 17 98 297 19 26 299 347 30 24 33 15
341 349 350 354 0 6 7 10 12 17 20 29 20 18 343 311 318 348 353 339 327 304 320 319 326 311 291 292 328 323 314 297 258 258 258 87 84 9 9 110 321 324 5 12 22 21 45
331 335 340 346 354 359 4 6 10 11 22 38 27 5 6 313 6 334 341 353 9 358 343 332 347 343 346 341 326 299 283 285 310 340 37 91 91 101 8 341 220 322 350 346 320 42 49
331 327 329 332 340 352 356 360 4 7 11 12 20 350 12 295 256 357 333 312 304 327 282 300 341 324 316 309 280 265 277 292 321 52 8 17 11 338 116 236 67 315 330 333 61 10 333
324 326 322 322 326 335 348 353 358 2 4 13 40 347 357 294 290 303 319 316 320 327 334 336 337 6 329 2 284 303 353 10 75 12 72 119 25 268 251 175 169 345 355 78 257 318 298
301 317 319 316 317 321 330 342 348 354 359 356 348 322 335 270 257 286 290 275 257 255 289 309 307 311 319 351 357 348 326 343 107 223 343 210 205 223 308 180 227 296 183 185 7 352 311